User: anonymous   Login
Location: Chuathbaluk
(61.5726°N, 159.2454°W)
Time: 12:35:28
(UTC+00:00)
Language:

DOVE 4 - Orbit

View from above orbital plane
View from above orbital plane
View from above satellite
View from above satellite

Ground track
Ground track

The orbit data is extracted from the following two-line orbital elements,

1 39430U 13066Q   21016.20395714  .00000128  00000-0  32521-4 0  9994
2 39430  97.8081 308.0634 0149379 234.2350 124.4891 14.59521535380831
Epoch (UTC): 16 January 2021 04:53:41
Eccentricity: 0.0149379
inclination: 97.8081°
perigee height: 589 km
apogee height: 800 km
right ascension of ascending node: 308.0634°
argument of perigee: 234.2350°
revolutions per day: 14.59521535
mean anomaly at epoch: 124.4891°
orbit number at epoch: 38083

The dashed part of the orbit path shows where the satellite is in the earth's shadow,  

DLR